When you browse on this site, cookies collect data to enhance your experience and personalize the content and advertising you see.
Visit our Privacy Policy to learn more. By continuing to use the site, you agree to this use of cookies and data.
  • In Belgien
  • Länderverzeichnis
  • Für 7 Tage
  • Wassertemperatur
  • Satellitenkarten
  • Wetterkarte
  • Widgets
  • user-avatar
    Anmelden

    Stündliche Wetter Prezyce

    Heute, 24 Januar, Donnerstag

    Zeit Temperatur Niederschläge Wind Luftdruck Luftfeuchtigkeit
    00:00 -7°C° 0 mm 4 m/S 746 mmHg 68%
    01:00 -7°C° 0 mm 4 m/S 746 mmHg 69%
    02:00 -7°C° 0 mm 4 m/S 746 mmHg 69%
    03:00 -7°C° 0 mm 4 m/S 746 mmHg 69%
    04:00 -7°C° 0 mm 4 m/S 746 mmHg 68%
    05:00 -8°C° 0 mm 4 m/S 747 mmHg 68%
    06:00 -8°C° 0 mm 4 m/S 747 mmHg 69%
    07:00 -8°C° 0 mm 4 m/S 747 mmHg 69%
    08:00 -8°C° 0 mm 4 m/S 747 mmHg 68%
    09:00 -8°C° 0 mm 4 m/S 748 mmHg 66%
    10:00 -7°C° 0 mm 4 m/S 748 mmHg 65%
    11:00 -7°C° 0 mm 4 m/S 748 mmHg 64%
    12:00 -7°C° 0 mm 4 m/S 748 mmHg 63%
    13:00 -5°C° 0 mm 4 m/S 748 mmHg 62%
    14:00 -7°C° 0 mm 4 m/S 748 mmHg 63%
    15:00 -7°C° 0 mm 4 m/S 748 mmHg 64%
    16:00 -7°C° 0 mm 4 m/S 748 mmHg 65%
    17:00 -7°C° 0 mm 4 m/S 748 mmHg 65%
    18:00 -7°C° 0 mm 4 m/S 748 mmHg 66%
    19:00 -7°C° 0 mm 4 m/S 749 mmHg 67%
    20:00 -6°C° 0 mm 3 m/S 749 mmHg 67%
    21:00 -6°C° 0 mm 3 m/S 749 mmHg 67%
    22:00 -6°C° 0 mm 3 m/S 749 mmHg 67%
    23:00 -6°C° 0 mm 3 m/S 749 mmHg 67%

    Morgen, 25 Januar, Freitag

    Zeit Temperatur Niederschläge Wind Luftdruck Luftfeuchtigkeit
    00:00 -5°C° 0 mm 2 m/S 749 mmHg 68%
    01:00 -5°C° 0 mm 2 m/S 749 mmHg 68%
    02:00 -5°C° 0 mm 2 m/S 749 mmHg 69%
    03:00 -5°C° 0 mm 2 m/S 749 mmHg 71%
    04:00 -5°C° 0 mm 2 m/S 749 mmHg 72%
    05:00 -5°C° 0 mm 2 m/S 750 mmHg 72%
    06:00 -6°C° 0 mm 2 m/S 750 mmHg 73%
    07:00 -6°C° 0 mm 2 m/S 750 mmHg 73%
    08:00 -5°C° 0 mm 2 m/S 750 mmHg 73%
    09:00 -5°C° 0 mm 2 m/S 751 mmHg 72%
    10:00 -5°C° 0 mm 2 m/S 751 mmHg 71%
    11:00 -5°C° 0 mm 2 m/S 751 mmHg 69%
    12:00 -6°C° 0 mm 3 m/S 751 mmHg 67%
    13:00 -5°C° 0 mm 3 m/S 751 mmHg 65%
    14:00 -5°C° 0 mm 3 m/S 751 mmHg 64%
    15:00 -5°C° 0 mm 3 m/S 752 mmHg 63%
    16:00 -5°C° 0 mm 4 m/S 752 mmHg 63%
    17:00 -5°C° 0 mm 3 m/S 752 mmHg 63%
    18:00 -5°C° 0 mm 3 m/S 753 mmHg 63%
    19:00 -6°C° 0 mm 3 m/S 753 mmHg 63%
    20:00 -6°C° 0 mm 3 m/S 753 mmHg 64%
    21:00 -6°C° 0 mm 3 m/S 753 mmHg 65%
    22:00 -6°C° 0 mm 3 m/S 753 mmHg 66%
    23:00 -6°C° 0 mm 3 m/S 753 mmHg 68%

    übermorgen, 26 Januar, Samstag

    Zeit Temperatur Niederschläge Wind Luftdruck Luftfeuchtigkeit
    00:00 -7°C° 0 mm 3 m/S 753 mmHg 69%
    01:00 -7°C° 0 mm 3 m/S 753 mmHg 70%
    02:00 -6°C° 0 mm 2 m/S 753 mmHg 70%
    03:00 -6°C° 0 mm 2 m/S 752 mmHg 70%
    04:00 -6°C° 0 mm 2 m/S 752 mmHg 71%
    05:00 -7°C° 0 mm 3 m/S 752 mmHg 68%
    06:00 -7°C° 0 mm 3 m/S 751 mmHg 65%
    07:00 -7°C° 0 mm 3 m/S 751 mmHg 62%
    08:00 -7°C° 0 mm 4 m/S 750 mmHg 58%
    09:00 -6°C° 0 mm 5 m/S 749 mmHg 54%
    10:00 -5°C° 0 mm 5 m/S 749 mmHg 50%
    11:00 -4°C° 0.8 mm 5 m/S 748 mmHg 62%
    12:00 -2°C° 0.8 mm 5 m/S 747 mmHg 75%
    13:00 -2°C° 0.8 mm 5 m/S 746 mmHg 87%
    14:00 -1°C° 0.7 mm 5 m/S 746 mmHg 87%
    15:00 0°C° 0.7 mm 5 m/S 745 mmHg 87%
    16:00 +1°C° 0.7 mm 6 m/S 745 mmHg 87%
    17:00 +1°C° 0.1 mm 6 m/S 745 mmHg 88%
    18:00 +1°C° 0.1 mm 6 m/S 745 mmHg 88%
    19:00 +1°C° 0.1 mm 6 m/S 745 mmHg 89%
    20:00 +1°C° 0.2 mm 5 m/S 745 mmHg 90%
    21:00 +1°C° 0.2 mm 5 m/S 746 mmHg 91%
    22:00 0°C° 0.2 mm 4 m/S 746 mmHg 92%
    23:00 0°C° 0.4 mm 4 m/S 746 mmHg 92%

    27 Januar, Sonntag

    Zeit Temperatur Niederschläge Wind Luftdruck Luftfeuchtigkeit
    00:00 +1°C° 0.4 mm 3 m/S 746 mmHg 93%
    01:00 +2°C° 0.4 mm 2 m/S 746 mmHg 94%
    02:00 +2°C° 0.4 mm 2 m/S 745 mmHg 93%
    03:00 +2°C° 0.4 mm 2 m/S 745 mmHg 93%
    04:00 +2°C° 0.4 mm 2 m/S 744 mmHg 93%
    05:00 0°C° 0 mm 3 m/S 744 mmHg 91%
    06:00 0°C° 0 mm 3 m/S 743 mmHg 90%
    07:00 0°C° 0 mm 3 m/S 743 mmHg 89%
    08:00 0°C° 0 mm 4 m/S 742 mmHg 86%
    09:00 0°C° 0 mm 4 m/S 742 mmHg 84%
    10:00 +1°C° 0 mm 5 m/S 742 mmHg 81%
    11:00 +1°C° 0 mm 5 m/S 741 mmHg 79%
    12:00 +2°C° 0 mm 5 m/S 740 mmHg 76%
    13:00 +2°C° 0 mm 5 m/S 740 mmHg 74%
    14:00 +2°C° 0 mm 5 m/S 739 mmHg 74%
    15:00 +3°C° 0 mm 4 m/S 739 mmHg 75%
    16:00 +1°C° 0 mm 4 m/S 738 mmHg 75%
    17:00 +1°C° 0 mm 4 m/S 738 mmHg 75%
    18:00 +1°C° 0 mm 5 m/S 738 mmHg 75%
    19:00 0°C° 0 mm 5 m/S 738 mmHg 74%
    20:00 0°C° 0.1 mm 5 m/S 738 mmHg 76%
    21:00 0°C° 0.1 mm 5 m/S 738 mmHg 77%
    22:00 0°C° 0.1 mm 5 m/S 738 mmHg 78%
    23:00 0°C° 0 mm 5 m/S 738 mmHg 78%

    28 Januar, Montag

    Zeit Temperatur Niederschläge Wind Luftdruck Luftfeuchtigkeit
    00:00 0°C° 0 mm 5 m/S 737 mmHg 78%
    01:00 -1°C° 0 mm 6 m/S 737 mmHg 78%
    02:00 -1°C° 0 mm 6 m/S 737 mmHg 79%
    03:00 -1°C° 0 mm 6 m/S 736 mmHg 80%
    04:00 -1°C° 0 mm 6 m/S 736 mmHg 80%
    05:00 0°C° 0 mm 5 m/S 736 mmHg 80%
    06:00 -1°C° 0 mm 5 m/S 736 mmHg 81%
    07:00 -1°C° 0 mm 5 m/S 736 mmHg 81%
    08:00 -1°C° 0 mm 6 m/S 736 mmHg 77%
    09:00 +1°C° 0 mm 6 m/S 736 mmHg 74%
    10:00 0°C° 0 mm 7 m/S 737 mmHg 70%
    11:00 +2°C° 0 mm 7 m/S 737 mmHg 69%
    12:00 +2°C° 0 mm 7 m/S 737 mmHg 67%
    13:00 +3°C° 0 mm 7 m/S 736 mmHg 65%
    14:00 +2°C° 0 mm 6 m/S 737 mmHg 68%
    15:00 +2°C° 0 mm 6 m/S 737 mmHg 71%
    16:00 +1°C° 0 mm 6 m/S 738 mmHg 74%
    17:00 +1°C° 0 mm 5 m/S 739 mmHg 77%
    18:00 0°C° 0 mm 5 m/S 739 mmHg 81%
    19:00 -1°C° 0 mm 4 m/S 740 mmHg 84%
    20:00 -1°C° 0 mm 4 m/S 740 mmHg 83%
    21:00 -2°C° 0 mm 4 m/S 741 mmHg 83%
    22:00 -2°C° 0 mm 4 m/S 742 mmHg 83%
    23:00 -2°C° 0 mm 4 m/S 742 mmHg 83%

    29 Januar, Dienstag

    Zeit Temperatur Niederschläge Wind Luftdruck Luftfeuchtigkeit
    00:00 -2°C° 0 mm 4 m/S 742 mmHg 83%
    01:00 -2°C° 0 mm 4 m/S 742 mmHg 83%
    02:00 -3°C° 0 mm 4 m/S 742 mmHg 84%
    03:00 -2°C° 0 mm 3 m/S 742 mmHg 85%
    04:00 -2°C° 0 mm 3 m/S 742 mmHg 85%
    05:00 -2°C° 0 mm 3 m/S 742 mmHg 85%
    06:00 -2°C° 0 mm 3 m/S 742 mmHg 85%
    07:00 -2°C° 0 mm 3 m/S 742 mmHg 84%
    08:00 -2°C° 0 mm 3 m/S 743 mmHg 80%
    09:00 -1°C° 0 mm 3 m/S 743 mmHg 76%
    10:00 0°C° 0 mm 3 m/S 743 mmHg 72%
    11:00 0°C° 0 mm 3 m/S 743 mmHg 69%
    12:00 +1°C° 0 mm 3 m/S 743 mmHg 66%
    13:00 +3°C° 0 mm 2 m/S 742 mmHg 62%
    14:00 +1°C° 0 mm 3 m/S 742 mmHg 66%
    15:00 +1°C° 0 mm 3 m/S 742 mmHg 69%
    16:00 0°C° 0 mm 3 m/S 742 mmHg 72%
    17:00 -1°C° 0 mm 3 m/S 742 mmHg 72%
    18:00 -1°C° 0 mm 3 m/S 742 mmHg 72%
    19:00 -3°C° 0 mm 4 m/S 742 mmHg 72%
    20:00 -3°C° 0 mm 4 m/S 742 mmHg 73%
    21:00 -2°C° 0 mm 4 m/S 742 mmHg 74%
    22:00 -2°C° 0 mm 4 m/S 742 mmHg 74%
    23:00 -2°C° 0.2 mm 4 m/S 742 mmHg 78%
    Mehr zeigen